Regional Weather Roundup
Issued by NWS Cleveland, OH

Home | Current Version | Previous Version | Text Only | Print | Product List | Glossary On
Versions: 1 2 3 4 5 6 7 8 9 10 11 12 13 14 15 16 17 18 19 20 21 22 23 24 25 26 27 28 29 30 31 32 33 34 35 36 37 38 39 40 41 42 43 44 45 46 47 48 49 50
767
ASUS41 KCLE 221310
RWRCLE
OHIO REGIONAL WEATHER ROUNDUP
NATIONAL WEATHER SERVICE WILMINGTON, OH
900 AM EDT FRI MAY 22 2015

NOTE: "FAIR" INDICATES FEW OR NO CLOUDS BELOW 12,000 FEET WITH NO
SIGNIFICANT WEATHER AND/OR OBSTRUCTIONS TO VISIBILITY.

OHZ001>008-015>018-024>027-034-035-043-044-221400-
   NORTHWEST OHIO

CITY           SKY/WX    TMP DP  RH WIND       PRES   REMARKS
DEFIANCE       SUNNY     58  36  43 N7        30.15R
FINDLAY        MOSUNNY   55  43  63 W8        30.13R
TOLEDO EXPRESS SUNNY     55  34  45 N7        30.14R
TOLEDO EXEC    SUNNY     57  32  38 N9        30.14R
LIMA           MOSUNNY   54  43  66 W8        30.14R
$$

OHZ009>014-019>023-028>033-038-089-221400-
   NORTHEAST OHIO

CITY           SKY/WX    TMP DP  RH WIND       PRES   REMARKS
CLE-HOPKINS    CLOUDY    52  45  77 W8        30.12R
CLE-LAKEFRONT  CLOUDY    53  37  54 NE12      30.09S
CUY CO. ARPT   PTSUNNY   54  32  43 NE7       30.10R
LORAIN-ELYRIA  PTSUNNY   55  45  68 NW13      30.12R
ASHTABULA      PTSUNNY   50  34  54 N6        30.10R
AKRON-CANTON   MOSUNNY   56  40  55 W8        30.10R
WOOSTER        SUNNY     57  40  52 NW10      30.11S
MANSFIELD      PTSUNNY   53  41  63 W6        30.13R
YOUNGSTOWN     LGT RAIN  48  42  80 W8        30.09R
$$

OHZ042-051>053-060>062-070>072-077>081-221400-
  SOUTHWEST OHIO

CITY           SKY/WX    TMP DP  RH WIND       PRES   REMARKS
CINC-COVINGTON SUNNY     55  45  68 W7        30.21R
CINC-LUNKEN    SUNNY     55  46  71 SW6       30.22R
HAMILTON       SUNNY     54  46  74 W7        30.21R
DAYTON         SUNNY     55  45  68 W8        30.18F
WRIGHT-PAT AFB SUNNY     53  46  74 SW8       30.18S
DAYTON GENERAL SUNNY     53  45  74 SW8       30.18S
WILMINGTON     SUNNY     53  43  68 W10       30.19R
$$

OHZ036-037-039>041-045>050-054>059-063>069-073>076-082>088-221400-
  CENTRAL AND SOUTHEAST OHIO

CITY           SKY/WX    TMP DP  RH WIND       PRES   REMARKS
COLUMBUS       SUNNY     52  43  71 S7        30.16S
OSU AIRPORT    SUNNY     55  43  63 W7        30.16R
BOLTON FIELD   SUNNY     54  45  71 SW7       30.17R
RICKENBACK AFB SUNNY     52  45  77 SW7       30.18R
NEWARK         SUNNY     54  46  74 SW6       30.15R
MARION         PTSUNNY   55  42  61 W5        30.12F
LANCASTER      SUNNY     54  44  69 W8        30.18R
ZANESVILLE     MOSUNNY   51  43  74 W8        30.16R
NEW PHILLY     SUNNY     56  43  61 NW5       30.14R
$$



USA.gov is the U.S. government's official web portal to all federal, state and local government web resources and services.